Location: Unspecified
(40.7945°N, 111.1337°W)
Time: 07:33:28
(UTC-06:00)

S-56A Canister/Altair - Visible Passes

Search period start: 20 June 2019 00:00
Search period end: 30 June 2019 00:00
Orbit: 633 x 2499 km, 38.9° (Epoch: 19 June)

Date Brightness Start Highest point End Pass type
(mag) Time Alt. Az. Time Alt. Az. Time Alt. Az.
20 Jun 8.2 22:44:57 10° W 22:49:18 30° SSW 22:50:43 25° S visible
21 Jun 8.2 22:11:59 10° W 22:16:52 35° SSW 22:19:41 18° SSE visible
22 Jun 8.1 21:38:58 10° W 21:44:23 41° SSW 21:48:38 10° SE visible
23 Jun 9.4 23:13:03 10° WSW 23:14:31 11° SW 23:15:02 11° SSW visible
24 Jun 9.2 22:39:15 10° WSW 22:42:05 15° SW 22:44:02 12° SSW visible
25 Jun 9.3 22:05:47 10° W 22:09:39 19° SW 22:12:58 10° S visible
26 Jun 9.2 21:32:25 10° W 21:37:14 24° SW 21:41:06 10° SSE visible
